Wind_Speed
9 6 4 5 5 5 4 3 3 2 2 3 4 5 6 7 8 8 6 6 5 4 3 2 3 2 1 2 3 4 2 2 2 1 0 1 1 3 5 7 7 6 3
9 7 4 5 4 4 3 3 2 2 1 2 3 4 6 6 7 8 6 5 4 4 3 1 1 1 2 2 1 2 3 2 4 3 2 1 1 2 4 6 7 6 3
9 8 6 5 4 3 3 2 1 1 1 3 4 4 5 6 7 8 7 5 3 3 2 2 1 3 4 4 4 5 4 4 5 8 7 6 5 3 3 4 7 8 6
9 6 8 5 4 3 2 1 0 1 2 3 4 5 5 5 6 6 7 7 5 5 4 4 4 4 5 6 6 6 5 6 6 8 10 9 8 7 3 2 5 7 6
11 8 6 6 4 4 2 2 1 1 2 4 5 6 7 7 7 8 8 8 8 7 7 7 7 8 8 8 8 7 7 6 7 8 10 10 8 6 5 4 6 7 7
12 12 10 7 6 5 4 3 4 5 5 6 6 5 6 7 8 9 9 9 9 9 9 9 10 10 10 10 9 8 8 8 8 10 10 11 10 8 10 6 8 9 10
14 11 10 8 6 5 5 5 6 7 8 8 9 9 10 10 10 10 10 10 11 11 12 12 12 12 12 13 12 12 10 9 9 10 12 14 13 11 11 10 8 10 11
12 10 8 6 5 4 5 6 7 8 10 10 11 11 12 13 13 14 14 14 14 13 13 14 15 15 15 15 14 14 14 13 11 11 12 15 15 13 14 14 12 13 14
11 9 7 5 4 4 5 7 8 10 11 12 13 14 14 15 16 16 16 16 17 17 15 15 16 17 17 17 17 17 16 16 16 14 13 15 17 17 15 15 17 16 16
10 7 5 4 4 5 7 8 9 11 12 13 14 15 16 17 17 18 19 19 19 20 19 19 19 18 18 17 17 17 17 18 18 18 16 16 16 20 20 20 20 20 18
9 6 4 4 5 6 7 8 10 11 12 13 14 15 16 17 18 19 20 21 22 22 22 23 24 23 22 21 19 19 19 20 20 20 20 18 18 19 22 24 24 23 21
8 6 4 4 5 6 7 8 9 10 11 12 14 15 17 18 19 20 21 22 23 24 25 25 25 25 25 26 23 21 21 22 23 23 23 20 19 21 22 23 24 27 24
7 5 4 4 5 6 7 8 9 10 12 13 15 16 17 18 18 19 20 21 22 24 25 26 27 26 26 27 27 25 24 23 22 22 21 20 20 18 20 22 22 25 26
6 4 4 5 6 7 9 9 10 11 12 14 14 15 14 14 14 15 16 17 17 19 21 24 26 27 26 25 26 27 26 25 23 21 20 21 21 22 24 24 23 21 24
5 4 5 5 6 8 9 10 12 12 12 13 13 14 14 14 15 14 14 15 15 16 17 18 21 24 27 27 25 25 25 24 24 24 21 19 21 21 24 23 24 24 24
7 5 5 6 6 8 9 10 11 12 12 13 13 14 15 15 15 15 15 15 15 15 16 16 18 18 20 23 27 27 26 25 24 23 24 24 24 25 23 25 23 26 27
7 7 7 7 7 8 9 10 10 11 11 12 12 13 15 15 15 16 16 16 16 16 16 15 15 15 16 18 19 22 24 24 23 21 21 21 21 24 25 26 27 30 25
9 7 8 9 9 10 10 10 10 10 11 12 13 14 15 16 16 17 17 18 17 17 17 16 16 16 15 16 16 16 17 20 23 23 23 23 24 25 25 21 21 21 22
10 9 10 10 11 11 10 10 10 10 11 12 13 15 15 16 17 17 18 18 18 18 18 17 17 17 19 15 14 13 13 13 14 16 17 18 19 21 24 24 23 23 23
10 10 10 11 11 11 11 10 9 10 11 13 14 15 16 16 16 16 17 17 17 17 17 16 16 14 16 19 18 16 13 11 10 8 8 9 10 9 10 10 11 13 15
12 10 9 10 12 11 10 9 9 10 11 12 13 15 15 16 16 16 16 16 17 17 18 18 19 17 13 14 16 11 4 2 3 2 2 1 4 6 8 9 11 11 11
13 10 9 11 12 11 10 9 9 10 11 12 13 14 15 14 15 15 16 16 16 16 16 16 16 16 13 13 14 11 8 1 2 2 5 7 10 12 14 14 15 14 14
17 10 11 12 10 10 10 10 11 11 12 12 13 13 14 14 14 15 16 17 17 17 17 16 15 14 13 11 7 6 5 4 15 8 9 11 16 16 15 15 14 14 15
15 11 12 9 9 10 11 12 12 12 13 13 13 13 13 14 14 14 15 15 16 16 17 16 15 14 11 10 6 5 6 10 7 11 10 14 14 14 13 12 12 11 11
13 10 8 6 8 12 14 15 15 14 14 14 14 14 14 14 14 15 16 15 16 16 17 17 15 14 13 10 10 9 6 6 8 11 19 17 15 14 13 12 13 13 14
13 11 7 6 9 12 14 16 17 17 16 16 15 15 14 14 14 15 15 15 16 17 17 16 16 15 14 13 11 10 6 6 8 9 18 20 17 12 14 10 14 16 17
Wind_Direction
150 156 137 150 142 150 148 144 133 114 82 56 39 30 25 23 24 26 33 39 63 92 114 89 82 97 65 45 43 34 6 334 338 115 37 77 45 30 22 13 8 14 22
155 168 160 160 153 151 151 152 151 132 73 41 31 22 16 12 14 19 24 30 47 64 83 57 359 337 314 310 287 337 334 295 237 232 215 252 308 0 358 357 355 356 0
140 166 169 152 154 149 153 150 139 49 10 360 360 360 358 357 358 1 6 5 2 6 6 331 328 339 334 317 297 294 291 282 256 239 241 240 249 269 325 338 348 346 343
145 150 169 171 164 150 153 153 78 346 344 336 335 337 336 338 339 342 344 344 332 318 316 313 308 310 320 329 321 303 291 282 265 250 241 243 252 264 271 331 332 340 338
180 181 166 172 166 168 172 172 206 289 308 314 320 323 320 323 324 324 325 324 322 314 305 301 296 296 299 303 316 319 301 287 274 261 245 245 263 257 239 298 319 323 323
186 185 191 185 189 199 212 240 263 272 279 286 294 295 301 308 312 311 310 306 302 301 300 299 298 296 294 297 294 303 307 295 279 265 253 252 264 268 255 276 307 303 313
177 176 179 182 193 214 232 254 267 273 277 280 279 276 278 280 283 282 283 285 287 288 289 290 293 294 295 294 294 288 293 294 285 268 259 254 263 269 271 263 291 298 302
171 170 175 185 209 236 260 271 277 278 278 282 280 280 282 281 281 279 282 281 279 277 280 281 283 284 287 288 289 288 286 288 287 278 265 257 257 259 274 263 272 285 290
164 168 180 194 226 252 266 276 281 283 283 284 285 285 284 283 284 285 284 283 281 278 276 278 282 283 282 282 284 284 284 285 285 280 275 266 255 256 263 267 268 275 284
175 177 184 206 244 265 275 279 283 284 288 290 292 291 290 287 286 285 284 282 279 276 274 272 273 273 277 281 281 283 284 284 284 286 280 275 269 260 258 259 266 273 274
178 186 198 234 262 277 287 294 298 299 299 298 296 293 291 288 285 283 283 282 279 277 275 272 271 270 271 269 267 273 277 280 283 283 283 281 275 270 266 260 262 267 268
184 195 220 249 275 292 301 307 310 311 306 304 301 297 296 296 295 292 289 285 282 280 277 275 273 271 272 272 270 265 268 274 277 276 277 278 275 271 266 268 267 263 265
195 211 242 279 297 309 317 321 318 313 310 309 306 307 306 304 304 301 298 293 287 281 277 274 272 272 270 270 269 270 267 268 273 273 274 274 272 270 270 263 274 264 262
206 233 270 295 316 325 326 324 321 320 320 320 319 318 319 315 313 311 309 306 302 294 286 278 273 272 272 272 273 274 273 272 273 274 272 273 270 267 271 275 269 267 261
222 249 280 304 318 319 321 325 324 325 327 327 328 327 326 324 325 324 322 318 315 310 304 297 286 277 270 269 270 274 277 278 276 275 275 279 274 272 270 274 267 264 263
232 255 277 290 304 311 315 320 324 326 327 328 330 330 330 327 326 326 327 325 322 318 315 312 307 299 290 279 270 270 274 278 280 280 277 276 279 284 282 273 278 266 258
244 256 270 292 301 311 318 322 325 326 328 329 328 328 327 326 326 326 324 322 321 320 320 317 312 311 306 300 292 280 273 273 276 278 279 280 280 280 283 282 278 280 284
254 277 291 297 307 311 315 320 325 328 331 332 331 332 331 329 328 325 321 319 319 320 319 320 319 319 317 314 312 304 289 278 274 277 280 283 285 284 283 280 276 273 276
270 286 292 294 299 306 312 319 326 331 335 340 337 339 336 331 329 325 322 320 320 320 320 320 320 320 319 320 317 318 315 307 293 285 283 280 280 278 280 283 285 283 280
272 282 284 288 297 305 311 317 321 327 334 338 339 339 338 336 332 329 325 322 323 321 318 317 317 321 317 319 319 318 319 316 308 296 287 280 282 277 276 281 285 287 287
258 268 282 297 298 300 303 307 313 323 326 330 334 336 337 335 337 338 336 333 331 330 327 324 324 328 327 324 322 328 24 345 313 42 72 308 259 269 290 292 294 287 290
247 258 285 299 293 287 292 297 303 311 321 328 331 333 333 336 338 337 337 338 339 340 339 335 334 341 350 356 355 356 357 91 112 300 275 291 293 303 302 294 291 290 286
242 258 285 295 282 284 287 292 300 308 316 321 322 325 329 334 337 335 336 337 340 342 348 352 350 351 356 5 26 11 329 315 310 278 288 306 309 306 306 298 294 289 284
236 257 287 282 274 278 282 288 294 299 304 307 314 319 324 328 332 333 333 336 339 341 343 344 344 344 344 351 15 304 280 283 297 305 294 306 318 315 313 308 305 309 307
228 253 260 266 286 288 288 288 289 292 298 303 306 312 316 322 327 329 331 334 337 339 338 337 334 330 332 337 341 338 332 305 271 284 302 303 318 327 323 319 317 311 316
218 232 232 277 293 298 297 291 290 291 293 294 297 301 307 314 319 322 325 330 334 335 333 330 328 325 321 316 310 307 301 295 280 287 293 310 316 322 319 316 320 316 316
Height
1546 1548 1548 1549 1549 1550 1550 1550 1550 1551 1550 1550 1549 1549 1549 1548 1547 1547 1546 1545 1545 1545 1544 1544 1543 1543 1543 1542 1542 1541 1541 1540 1540 1540 1540 1539 1539 1539 1538 1538 1537 1536 1536
1546 1547 1548 1549 1549 1550 1551 1551 1551 1551 1551 1550 1550 1550 1549 1549 1548 1548 1547 1547 1546 1546 1545 1545 1544 1544 1543 1543 1542 1542 1541 1541 1540 1540 1540 1540 1539 1539 1539 1538 1538 1537 1536
1545 1547 1549 1550 1550 1550 1551 1551 1551 1551 1551 1551 1551 1550 1550 1549 1549 1548 1548 1547 1547 1547 1546 1546 1545 1544 1544 1543 1542 1542 1541 1540 1540 1540 1539 1539 1539 1539 1539 1538 1538 1538 1537
1546 1547 1549 1550 1551 1551 1552 1552 1552 1552 1551 1551 1551 1550 1550 1550 1549 1549 1548 1548 1547 1547 1546 1546 1545 1545 1544 1543 1542 1541 1541 1540 1539 1539 1538 1538 1538 1539 1538 1538 1538 1537 1537
1546 1548 1549 1550 1551 1551 1552 1552 1552 1552 1551 1551 1551 1550 1550 1550 1549 1549 1548 1548 1547 1546 1546 1545 1545 1544 1543 1543 1542 1541 1540 1539 1538 1538 1538 1537 1538 1538 1538 1538 1537 1537 1537
1546 1547 1549 1549 1551 1551 1551 1551 1551 1551 1551 1551 1550 1550 1549 1549 1549 1548 1547 1546 1546 1545 1545 1544 1543 1543 1542 1541 1541 1540 1539 1539 1538 1537 1537 1537 1537 1537 1536 1536 1537 1537 1536
1545 1547 1548 1549 1550 1550 1551 1551 1551 1551 1550 1550 1549 1549 1548 1547 1547 1546 1545 1544 1544 1544 1543 1542 1542 1541 1541 1540 1539 1538 1538 1537 1537 1536 1536 1536 1536 1536 1535 1535 1535 1536 1535
1546 1547 1549 1550 1550 1551 1551 1551 1550 1550 1549 1549 1548 1547 1547 1546 1545 1544 1544 1543 1542 1541 1541 1540 1540 1539 1538 1538 1537 1536 1536 1536 1535 1535 1534 1534 1534 1534 1533 1533 1533 1534 1534
1546 1548 1549 1549 1550 1550 1551 1550 1549 1549 1548 1547 1547 1546 1545 1544 1544 1543 1542 1541 1540 1539 1538 1537 1537 1536 1535 1535 1535 1534 1533 1533 1533 1533 1532 1532 1532 1532 1532 1531 1531 1531 1531
1546 1547 1548 1549 1549 1549 1549 1549 1548 1547 1546 1546 1545 1544 1543 1542 1541 1540 1539 1538 1537 1536 1536 1534 1534 1533 1532 1531 1531 1531 1531 1531 1530 1530 1530 1529 1529 1529 1529 1529 1529 1528 1529
1546 1547 1547 1548 1549 1548 1548 1547 1546 1546 1545 1544 1543 1541 1540 1539 1538 1536 1535 1534 1533 1532 1532 1531 1530 1529 1528 1527 1527 1527 1527 1526 1527 1526 1526 1526 1526 1526 1525 1525 1526 1525 1526
1546 1547 1547 1548 1548 1548 1547 1546 1545 1544 1543 1542 1541 1539 1538 1536 1534 1533 1532 1530 1529 1528 1527 1526 1526 1525 1524 1523 1523 1522 1522 1522 1522 1521 1521 1522 1522 1521 1521 1521 1521 1521 1521
1546 1546 1547 1547 1548 1547 1546 1545 1545 1543 1542 1540 1538 1537 1535 1534 1531 1530 1528 1526 1524 1523 1522 1521 1521 1520 1519 1519 1518 1518 1518 1518 1517 1517 1517 1517 1517 1516 1516 1515 1515 1516 1517
1545 1546 1546 1547 1546 1546 1545 1544 1543 1541 1541 1539 1537 1535 1533 1531 1529 1527 1524 1522 1520 1518 1517 1515 1515 1514 1514 1514 1514 1514 1514 1513 1513 1512 1513 1513 1513 1512 1511 1511 1511 1511 1511
1545 1546 1546 1546 1546 1545 1544 1543 1542 1540 1539 1537 1535 1533 1531 1529 1526 1524 1522 1519 1517 1515 1513 1511 1510 1509 1509 1509 1509 1509 1509 1509 1509 1509 1508 1507 1507 1507 1506 1506 1506 1506 1506
1545 1545 1546 1546 1545 1545 1544 1542 1541 1539 1537 1535 1533 1531 1529 1527 1524 1522 1520 1518 1515 1513 1511 1509 1506 1505 1503 1503 1503 1504 1504 1505 1504 1505 1505 1504 1504 1503 1502 1502 1501 1500 1501
1545 1545 1545 1545 1545 1544 1543 1541 1540 1538 1536 1534 1532 1530 1528 1526 1523 1520 1519 1516 1514 1512 1510 1508 1506 1503 1500 1499 1498 1498 1499 1500 1500 1500 1500 1500 1499 1499 1498 1497 1496 1496 1495
1544 1544 1545 1545 1544 1543 1542 1540 1538 1537 1535 1533 1531 1528 1526 1524 1521 1519 1516 1515 1512 1510 1508 1506 1503 1501 1499 1497 1496 1496 1495 1495 1495 1495 1495 1495 1494 1493 1492 1492 1492 1491 1490
1543 1544 1543 1543 1542 1542 1540 1539 1537 1536 1533 1531 1529 1527 1525 1523 1520 1517 1515 1512 1511 1508 1507 1504 1501 1499 1496 1496 1495 1494 1493 1492 1491 1490 1490 1489 1489 1488 1487 1487 1487 1486 1485
1541 1541 1542 1541 1541 1540 1539 1538 1536 1534 1532 1530 1528 1526 1524 1522 1519 1517 1514 1511 1509 1507 1505 1502 1499 1498 1495 1493 1492 1492 1491 1490 1488 1487 1487 1487 1486 1485 1484 1483 1482 1481 1480
1539 1540 1540 1540 1539 1539 1537 1536 1535 1533 1532 1530 1528 1526 1523 1522 1519 1516 1514 1511 1509 1506 1503 1500 1497 1495 1494 1492 1490 1490 1489 1489 1488 1487 1487 1486 1484 1483 1482 1481 1480 1479 1477
1537 1538 1539 1538 1537 1537 1536 1535 1534 1533 1531 1529 1528 1526 1524 1521 1518 1515 1512 1510 1507 1505 1502 1499 1496 1493 1492 1491 1490 1489 1488 1489 1487 1487 1486 1484 1482 1480 1479 1478 1477 1476 1475
1535 1537 1537 1536 1536 1536 1535 1534 1533 1531 1530 1528 1527 1525 1522 1519 1517 1514 1511 1509 1506 1504 1501 1498 1496 1494 1492 1491 1491 1492 1490 1488 1485 1483 1483 1481 1479 1477 1475 1474 1474 1472 1471
1533 1535 1535 1534 1534 1534 1533 1532 1531 1530 1528 1527 1525 1523 1521 1518 1516 1513 1510 1507 1505 1502 1500 1498 1496 1494 1493 1492 1491 1491 1490 1489 1487 1482 1479 1478 1478 1475 1473 1471 1470 1469 1468
1531 1533 1533 1532 1531 1531 1530 1529 1528 1527 1526 1524 1523 1521 1519 1517 1514 1511 1509 1506 1504 1501 1499 1497 1495 1494 1492 1492 1490 1489 1489 1488 1486 1485 1479 1478 1477 1475 1472 1471 1468 1467 1466
1528 1529 1529 1530 1530 1529 1528 1527 1526 1524 1522 1521 1520 1519 1517 1515 1512 1510 1508 1505 1503 1500 1498 1496 1494 1492 1490 1488 1487 1487 1486 1486 1485 1484 1480 1476 1476 1475 1472 1470 1468 1465 1463